OE3MHU-13 Weather Reports


Display with metric or nautical units.
time (UTC)temp
F
wind
direction
speed
MPH
gust
MPH
rain 1hr
in
rain 24hr
in
rain mn
in
humidity
%
barometer
mb
20260503021019 49 77 5.0 10.0 0.00 0.00 0.00 75 1020.1
20260503020519 49 87 4.0 10.0 0.00 0.00 0.00 76 1020.1
20260503020011 48 79 0.0 6.0 0.00 0.00 0.00 79 1019.9
20260503015504 48 77 0.0 2.0 0.00 0.00 0.00 77 1019.9
20260503014958 48 113 0.0 2.0 0.00 0.00 0.00 77 1019.8
20260503014452 48 108 0.0 1.0 0.00 0.00 0.00 77 1019.7
20260503013946 48 146 0.0 1.0 0.00 0.00 0.00 76 1019.7
20260503013447 48 162 0.0 1.0 0.00 0.00 0.00 76 1019.8
20260503012946 48 239 0.0 1.0 0.00 0.00 0.00 76 1019.7
20260503012445 48 207 0.0 1.0 0.00 0.00 0.00 76 1019.7
20260503011944 48 221 0.0 2.0 0.00 0.00 0.00 76 1019.7
20260503011444 48 228 0.0 2.0 0.00 0.00 0.00 76 1019.8
20260503010943 49 82 0.0 1.0 0.00 0.00 0.00 76 1019.8
20260503010440 49 136 0.0 2.0 0.00 0.00 0.00 76 1019.9
20260503005939 49 198 0.0 2.0 0.00 0.00 0.00 75 1019.9
20260503005438 49 152 0.0 2.0 0.00 0.00 0.00 75 1019.9
20260503004937 49 86 0.0 1.0 0.00 0.00 0.00 75 1019.9
20260503004436 49 82 0.0 1.0 0.00 0.00 0.00 75 1019.8
20260503003937 49 101 0.0 1.0 0.00 0.00 0.00 75 1019.9
20260503003436 49 125 0.0 1.0 0.00 0.00 0.00 74 1019.9
20260503002934 49 205 0.0 1.0 0.00 0.00 0.00 74 1019.9
20260503002435 49 171 0.0 1.0 0.00 0.00 0.00 74 1020.1
20260503001935 49 76 0.0 0.0 0.00 0.00 0.00 74 1020.1
20260503001436 49 101 0.0 0.0 0.00 0.00 0.00 73 1020.1
20260503000931 49 115 0.0 0.0 0.00 0.00 0.00 73 1020.2
20260503000423 49 174 0.0 1.0 0.00 0.00 0.00 73 1020.2
20260502235918 50 176 0.0 1.0 0.00 0.00 0.00 73 1020.2
20260502235411 50 182 0.0 1.0 0.00 0.00 0.00 72 1020.3
20260502234904 50 229 0.0 1.0 0.00 0.00 0.00 72 1020.3
20260502234357 50 111 0.0 1.0 0.00 0.00 0.00 72 1020.4
20260502233851 50 120 0.0 1.0 0.00 0.00 0.00 72 1020.4
20260502233345 50 114 0.0 1.0 0.00 0.00 0.00 72 1020.5
20260502232838 50 127 0.0 1.0 0.00 0.00 0.00 71 1020.5
20260502232333 50 162 0.0 1.0 0.00 0.00 0.00 71 1020.5
20260502231827 50 120 0.0 1.0 0.00 0.00 0.00 71 1020.5
20260502231321 50 162 0.0 1.0 0.00 0.00 0.00 71 1020.7
20260502230815 51 159 0.0 1.0 0.00 0.00 0.00 71 1020.6
20260502230309 51 199 0.0 0.0 0.00 0.00 0.00 71 1020.6
20260502225803 51 199 0.0 0.0 0.00 0.00 0.00 71 1020.6
20260502225257 51 199 0.0 0.0 0.00 0.00 0.00 71 1020.5
20260502224751 51 199 0.0 0.0 0.00 0.00 0.00 71 1020.5
20260502224245 51 199 0.0 0.0 0.00 0.00 0.00 70 1020.6
20260502223739 52 199 0.0 0.0 0.00 0.00 0.00 70 1020.6
20260502223233 52 199 0.0 0.0 0.00 0.00 0.00 70 1020.6
20260502222727 52 199 0.0 0.0 0.00 0.00 0.00 69 1020.6
20260502222222 52 199 0.0 0.0 0.00 0.00 0.00 69 1020.7
20260502221715 52 199 0.0 0.0 0.00 0.00 0.00 69 1020.7
20260502221209 52 199 0.0 0.0 0.00 0.00 0.00 68 1020.8
20260502220703 52 199 0.0 0.0 0.00 0.00 0.00 67 1020.8
20260502220158 53 199 0.0 0.0 0.00 0.00 0.00 67 1020.7
20260502215652 53 199 0.0 0.0 0.00 0.00 0.00 66 1020.8
20260502215146 53 199 0.0 0.0 0.00 0.00 0.00 66 1020.7
20260502214640 53 199 0.0 0.0 0.00 0.00 0.00 66 1020.7
20260502214134 53 199 0.0 0.0 0.00 0.00 0.00 65 1020.7
20260502213628 54 199 0.0 0.0 0.00 0.00 0.00 65 1020.8
20260502213123 54 199 0.0 0.0 0.00 0.00 0.00 65 1020.8
20260502212616 54 215 0.0 2.0 0.00 0.00 0.00 64 1020.8
20260502212110 54 160 0.0 2.0 0.00 0.00 0.00 64 1020.8
20260502211604 54 205 0.0 0.0 0.00 0.00 0.00 64 1020.9
20260502211059 54 219 0.0 1.0 0.00 0.00 0.00 64 1020.9
20260502210553 55 219 0.0 1.0 0.00 0.00 0.00 63 1020.9
20260502210059 55 219 0.0 1.0 0.00 0.00 0.00 63 1020.9
20260502205540 55 219 0.0 0.0 0.00 0.00 0.00 62 1020.9
20260502205034 56 220 0.0 1.0 0.00 0.00 0.00 62 1021.0
20260502204528 56 219 0.0 1.0 0.00 0.00 0.00 61 1021.0
20260502204022 56 231 0.0 2.0 0.00 0.00 0.00 61 1021.0
20260502203516 56 214 0.0 2.0 0.00 0.00 0.00 60 1021.1
20260502203011 56 214 0.0 3.0 0.00 0.00 0.00 60 1021.1
20260502202712 57 214 0.0 1.0 0.00 0.00 0.00 60 1021.2
20260502202654 57 217 0.0 3.0 0.00 0.00 0.00 60 1021.1
20260502201452 57 218 0.0 1.0 0.00 0.00 0.00 60 1021.1
20260502200946 57 221 0.0 2.0 0.00 0.00 0.00 60 1021.2
20260502200440 57 217 0.0 3.0 0.00 0.00 0.00 60 1021.1
20260502195935 58 204 0.0 3.0 0.00 0.00 0.00 59 1021.3
20260502195429 58 210 0.0 3.0 0.00 0.00 0.00 59 1021.3
20260502194922 58 216 0.0 3.0 0.00 0.00 0.00 59 1021.3
20260502194417 58 239 0.0 3.0 0.00 0.00 0.00 59 1021.3
20260502193910 58 213 0.0 3.0 0.00 0.00 0.00 59 1021.3
20260502193405 58 206 0.0 3.0 0.00 0.00 0.00 59 1021.3
20260502192901 59 168 0.0 3.0 0.00 0.00 0.00 59 1021.3
20260502192352 59 179 0.0 2.0 0.00 0.00 0.00 59 1021.3
20260502191846 59 139 1.0 4.0 0.00 0.00 0.00 58 1021.3
20260502191340 59 160 1.0 4.0 0.00 0.00 0.00 58 1021.3
20260502190834 60 209 1.0 4.0 0.00 0.00 0.00 57 1021.2
20260502190328 60 208 1.0 4.0 0.00 0.00 0.00 57 1021.3
20260502185822 60 63 1.0 4.0 0.00 0.00 0.00 56 1021.2
20260502185316 61 225 1.0 4.0 0.00 0.00 0.00 56 1021.3
20260502184810 61 71 0.0 3.0 0.00 0.00 0.00 55 1021.2
20260502184305 62 221 0.0 2.0 0.00 0.00 0.00 55 1021.1
20260502183759 62 205 1.0 3.0 0.00 0.00 0.00 54 1021.1
20260502183252 63 252 0.0 3.0 0.00 0.00 0.00 53 1021.1
20260502182747 63 214 0.0 3.0 0.00 0.00 0.00 52 1021.1
20260502182245 64 205 0.0 3.0 0.00 0.00 0.00 51 1021.0
20260502181745 65 200 0.0 3.0 0.00 0.00 0.00 50 1020.9
20260502181245 66 225 0.0 2.0 0.00 0.00 0.00 48 1020.8
20260502180743 67 153 0.0 1.0 0.00 0.00 0.00 46 1020.8
20260502180241 69 168 0.0 1.0 0.00 0.00 0.00 44 1020.9
20260502170227 80 77 0.0 0.0 0.00 0.00 0.00 29 1020.9
20260502164216 80 173 0.0 0.0 0.00 0.00 0.00 29 1021.0
20260502163710 80 194 0.0 0.0 0.00 0.00 0.00 28 1021.1
20260502163205 81 194 0.0 0.0 0.00 0.00 0.00 28 1021.1
20260502162659 82 199 0.0 0.0 0.00 0.00 0.00 27 1021.2
20260502162153 82 195 0.0 0.0 0.00 0.00 0.00 27 1021.1
20260502162143 82 195 0.0 0.0 0.00 0.00 0.00 26 1021.3
20260502161141 82 186 0.0 1.0 0.00 0.00 0.00 28 1021.3
20260502160635 81 187 0.0 1.0 0.00 0.00 0.00 29 1021.5
20260502160129 80 105 0.0 1.0 0.00 0.00 0.00 29 1021.5
20260502152041 82 126 0.0 1.0 0.00 0.00 0.00 27 1021.8
20260502151535 82 238 0.0 1.0 0.00 0.00 0.00 28 1021.9
20260502151031 81 237 0.0 1.0 0.00 0.00 0.00 26 1022.0
20260502150523 81 221 0.0 3.0 0.00 0.00 0.00 27 1022.0
20260502130418 81 214 0.0 3.0 0.00 0.00 0.00 29 1023.2
20260502123401 82 182 0.0 1.0 0.00 0.00 0.00 30 1023.8
20260502122854 81 135 0.0 1.0 0.00 0.00 0.00 30 1023.8
20260502122347 81 208 0.0 2.0 0.00 0.00 0.00 29 1023.9
20260502121849 80 108 0.0 2.0 0.00 0.00 0.00 30 1024.0
20260502121347 81 248 0.0 2.0 0.00 0.00 0.00 29 1024.1
20260502120845 80 117 0.0 2.0 0.00 0.00 0.00 30 1024.1
20260502120348 79 103 0.0 2.0 0.00 0.00 0.00 32 1024.2
20260502115845 79 77 1.0 3.0 0.00 0.00 0.00 31 1024.3
20260502115345 80 258 0.0 3.0 0.00 0.00 0.00 29 1024.3
20260502114845 81 75 0.0 1.0 0.00 0.00 0.00 30 1024.3
20260502114343 80 159 0.0 2.0 0.00 0.00 0.00 30 1024.4
20260502113841 81 155 0.0 2.0 0.00 0.00 0.00 31 1024.5
20260502113340 80 165 0.0 2.0 0.00 0.00 0.00 32 1024.5
20260502112845 80 117 0.0 2.0 0.00 0.00 0.00 32 1024.6
20260502112339 80 103 0.0 2.0 0.00 0.00 0.00 31 1024.6
20260502111839 80 114 0.0 2.0 0.00 0.00 0.00 32 1024.5
20260502111339 79 121 0.0 2.0 0.00 0.00 0.00 33 1024.6
20260502110839 79 208 0.0 2.0 0.00 0.00 0.00 33 1024.6
20260502110339 79 202 0.0 1.0 0.00 0.00 0.00 33 1024.8
20260502105842 78 151 0.0 4.0 0.00 0.00 0.00 33 1024.8
20260502105335 78 115 0.0 4.0 0.00 0.00 0.00 34 1024.9
20260502104838 79 179 0.0 1.0 0.00 0.00 0.00 33 1024.9
20260502104334 78 112 0.0 3.0 0.00 0.00 0.00 35 1025.0
20260502103833 78 73 0.0 3.0 0.00 0.00 0.00 35 1025.0
20260502103332 77 84 0.0 1.0 0.00 0.00 0.00 35 1025.1
20260502102829 75 200 0.0 3.0 0.00 0.00 0.00 37 1025.2
20260502102329 75 118 0.0 3.0 0.00 0.00 0.00 36 1025.3
20260502101825 76 75 0.0 2.0 0.00 0.00 0.00 35 1025.4
20260502101325 77 83 0.0 2.0 0.00 0.00 0.00 34 1025.4
20260502100821 77 242 0.0 4.0 0.00 0.00 0.00 35 1025.8
20260502100321 78 273 0.0 4.0 0.00 0.00 0.00 33 1025.8
20260502090319 73 82 0.0 2.0 0.00 0.00 0.00 44 1026.3
20260502071300 63 136 0.0 1.0 0.00 0.00 0.00 57 1026.9
20260502070801 62 135 0.0 1.0 0.00 0.00 0.00 58 1026.8
20260502070301 62 87 0.0 1.0 0.00 0.00 0.00 59 1026.9
20260502065801 61 109 0.0 1.0 0.00 0.00 0.00 60 1026.9
20260502065301 61 134 0.0 1.0 0.00 0.00 0.00 59 1026.9
20260502064802 61 93 0.0 1.0 0.00 0.00 0.00 59 1026.9
20260502064257 60 86 0.0 1.0 0.00 0.00 0.00 61 1026.9
20260502063757 60 76 0.0 1.0 0.00 0.00 0.00 61 1026.9
20260502063257 59 59 0.0 1.0 0.00 0.00 0.00 62 1026.9
20260502062756 59 198 0.0 1.0 0.00 0.00 0.00 62 1027.0
20260502062256 58 178 0.0 1.0 0.00 0.00 0.00 63 1027.0
20260502061758 58 201 0.0 0.0 0.00 0.00 0.00 65 1027.0
20260502061257 57 205 0.0 0.0 0.00 0.00 0.00 66 1027.0
20260502060756 56 248 0.0 0.0 0.00 0.00 0.00 66 1027.0
20260502060257 56 211 0.0 1.0 0.00 0.00 0.00 68 1026.9
20260502055753 55 236 0.0 1.0 0.00 0.00 0.00 69 1026.9
20260502055253 54 218 0.0 1.0 0.00 0.00 0.00 71 1026.9
20260502054752 53 218 0.0 1.0 0.00 0.00 0.00 72 1026.9
20260502054253 52 231 0.0 1.0 0.00 0.00 0.00 72 1026.9
20260502053752 52 236 0.0 2.0 0.00 0.00 0.00 73 1026.9
20260502053252 51 236 0.0 3.0 0.00 0.00 0.00 74 1026.9
20260502052753 50 261 0.0 4.0 0.00 0.00 0.00 75 1026.9
20260502052253 50 240 0.0 4.0 0.00 0.00 0.00 75 1026.9
20260502051754 50 229 1.0 4.0 0.00 0.00 0.00 76 1026.9
20260502051253 49 247 1.0 5.0 0.00 0.00 0.00 77 1026.9
20260502050753 48 254 0.0 5.0 0.00 0.00 0.00 78 1026.8
20260502050252 48 205 0.0 2.0 0.00 0.00 0.00 78 1026.9
20260502045752 47 231 0.0 1.0 0.00 0.00 0.00 80 1026.8
20260502045252 47 224 0.0 1.0 0.00 0.00 0.00 80 1026.9
20260502044753 47 211 0.0 1.0 0.00 0.00 0.00 80 1026.8
20260502044253 47 40 0.0 1.0 0.00 0.00 0.00 80 1026.7
20260502043753 46 70 0.0 1.0 0.00 0.00 0.00 80 1026.7
20260502043253 46 84 0.0 1.0 0.00 0.00 0.00 80 1026.7
20260502042753 46 79 0.0 1.0 0.00 0.00 0.00 81 1026.6
20260502042253 46 207 0.0 0.0 0.00 0.00 0.00 80 1026.6
20260502041753 46 224 0.0 0.0 0.00 0.00 0.00 80 1026.7
20260502041253 46 224 0.0 1.0 0.00 0.00 0.00 79 1026.7
20260502040752 46 224 0.0 1.0 0.00 0.00 0.00 79 1026.6
20260502040253 47 224 0.0 3.0 0.00 0.00 0.00 78 1026.6
20260502035750 47 224 1.0 6.0 0.00 0.00 0.00 78 1026.6
20260502035249 46 238 1.0 6.0 0.00 0.00 0.00 80 1026.6
20260502034749 46 245 0.0 3.0 0.00 0.00 0.00 80 1026.7
20260502034424 46 60 0.0 1.0 0.00 0.00 0.00 79 1026.7
20260502034420 46 227 0.0 1.0 0.00 0.00 0.00 80 1026.6
20260502034414 46 225 0.0 1.0 0.00 0.00 0.00 80 1026.6
20260502032743 46 234 0.0 3.0 0.00 0.00 0.00 79 1026.6
20260502032242 46 237 0.0 3.0 0.00 0.00 0.00 79 1026.7
20260502031742 46 198 0.0 1.0 0.00 0.00 0.00 79 1026.6
20260502031241 46 200 0.0 3.0 0.00 0.00 0.00 79 1026.6
20260502030741 46 234 0.0 3.0 0.00 0.00 0.00 78 1026.6
20260502030239 47 167 0.0 3.0 0.00 0.00 0.00 78 1026.6
20260502025738 47 255 0.0 4.0 0.00 0.00 0.00 77 1026.6
20260502025239 47 215 1.0 4.0 0.00 0.00 0.00 76 1026.6
20260502024737 47 212 2.0 4.0 0.00 0.00 0.00 76 1026.6
20260502024232 48 244 2.0 5.0 0.00 0.00 0.00 76 1026.6
20260502023732 48 234 2.0 5.0 0.00 0.00 0.00 75 1026.6
20260502023231 48 246 2.0 4.0 0.00 0.00 0.00 75 1026.7
20260502022728 48 245 2.0 5.0 0.00 0.00 0.00 75 1026.6
20260502022228 48 246 1.0 5.0 0.00 0.00 0.00 75 1026.6
20260502021728 48 248 1.0 5.0 0.00 0.00 0.00 75 1026.6